Wetbulb
48.62 42.19 38.89 39.34 40.84 40.40 40.60 39.56 35.27 37.67 42.38 38.14 38.02 38.17 40.42 43.39 43.18 44.58 45.51 44.13 45.31 47.99 50.41 50.34 50.73 51.07 50.32 50.93 51.92 54.96 57.25 64.80 66.05 65.98 65.75 65.22 62.60 64.61 64.89 65.10 63.85 60.63 57.61 54.58
40.57 37.29 43.59 45.41 44.06 42.52 39.21 36.38 33.24 37.56 40.44 37.65 36.60 36.20 39.50 41.22 42.30 43.71 44.09 42.75 44.06 46.61 47.11 48.26 49.56 49.69 50.75 52.17 51.54 51.29 54.74 60.54 64.33 65.49 66.05 64.58 62.12 61.64 63.44 64.07 62.05 59.94 55.99 53.28
35.73 39.01 43.96 41.67 40.31 39.34 36.51 32.59 32.80 33.28 36.87 36.40 34.34 31.94 35.04 39.68 41.68 43.44 44.74 45.62 45.92 45.81 46.37 46.38 46.37 47.38 48.25 49.86 51.22 52.65 52.78 55.25 58.44 59.37 60.16 57.45 57.46 56.53 56.58 56.75 56.76 54.69 52.75 51.93
39.69 42.15 40.77 38.87 37.86 37.55 31.75 38.05 37.42 35.94 31.67 25.73 34.01 23.57 30.20 36.45 38.17 39.58 39.95 40.75 44.25 45.48 44.65 45.32 45.91 45.69 45.60 47.41 50.39 52.45 53.24 54.18 55.95 56.60 59.79 59.64 60.14 59.38 55.38 52.07 51.59 50.79 49.36 49.68
36.34 38.71 38.59 35.81 37.32 39.14 34.98 39.16 36.35 35.29 30.45 28.12 28.29 23.87 28.68 33.43 34.52 36.83 38.76 39.41 40.48 42.62 44.70 45.66 45.22 46.47 47.79 47.01 47.83 50.55 53.06 53.42 55.18 57.12 60.13 60.56 59.74 54.96 51.78 50.14 49.64 48.38 49.72 50.41
38.44 42.92 39.90 38.50 40.08 39.59 39.77 35.70 33.82 32.82 29.45 19.15 27.18 26.22 24.86 30.93 34.80 36.48 37.41 40.30 41.33 41.26 42.14 43.62 44.72 46.05 45.99 45.96 45.96 48.83 51.80 52.24 53.49 57.35 60.17 60.74 54.78 51.36 50.37 47.89 46.86 47.43 47.53 47.63
37.31 37.98 40.60 40.68 35.69 38.13 38.52 29.53 17.38 21.15 23.41 18.80 29.29 26.73 27.91 35.60 38.34 39.24 39.59 40.53 40.13 42.28 43.18 44.42 45.60 46.85 47.63 47.66 47.82 46.95 48.68 51.51 53.38 56.64 59.78 57.50 54.29 52.62 51.51 48.08 47.17 45.32 44.01 45.45
25.98 23.14 35.98 38.86 35.93 33.28 33.10 30.91 19.30 15.84 17.41 21.59 30.14 23.94 29.87 38.47 41.62 40.89 42.33 41.83 42.42 41.81 43.29 45.22 45.55 46.32 46.79 47.77 47.86 47.52 47.17 50.03 53.55 57.82 57.29 55.69 51.83 51.39 50.09 48.80 46.66 45.73 45.45 45.22
26.70 29.09 39.81 40.20 39.76 38.25 32.43 24.94 32.41 23.45 23.69 15.72 24.18 28.37 34.59 38.59 37.89 37.95 38.14 39.79 39.73 38.49 43.04 44.03 44.69 45.74 46.27 46.95 47.63 47.44 47.52 50.95 55.24 57.40 56.31 51.91 51.03 49.67 48.25 46.31 46.04 44.51 44.84 44.24
35.60 29.57 37.36 39.79 41.42 40.07 34.62 35.83 26.02 22.25 11.50 15.03 21.38 24.17 28.52 32.27 34.61 37.51 37.65 38.16 40.13 42.34 42.41 44.06 45.02 46.06 47.01 47.47 48.40 47.42 47.55 51.75 55.69 56.31 53.29 50.04 49.03 47.28 46.08 44.66 43.24 43.33 43.81 44.27
38.25 34.25 32.14 37.70 33.23 30.98 32.37 32.43 33.24 28.68 25.50 19.27 19.09 23.50 32.99 34.45 35.31 35.57 37.16 39.15 40.95 43.26 44.18 44.54 45.30 46.28 47.11 47.19 47.85 48.14 48.35 52.61 53.93 51.69 50.11 48.37 46.30 45.11 44.05 43.87 42.93 43.78 43.77 42.33
38.70 33.62 26.83 28.10 35.17 37.60 34.64 31.49 29.81 19.65 19.21 23.32 23.05 25.84 39.35 39.67 39.04 39.49 41.26 43.05 44.21 44.12 43.46 44.18 45.17 46.18 46.57 46.68 48.42 49.82 50.16 52.67 51.64 48.53 47.22 45.02 44.30 43.41 42.27 42.57 42.54 43.10 41.08 41.04
37.44 28.43 17.87 25.53 29.84 33.64 31.63 33.85 33.43 31.21 30.09 22.18 23.32 25.92 37.34 39.38 40.26 41.63 41.99 44.14 45.25 43.43 42.74 43.55 44.92 45.52 45.87 46.99 50.86 51.16 49.79 44.96 45.09 43.36 42.38 42.50 41.70 41.40 40.45 39.97 41.00 41.43 40.60 39.86
40.33 31.85 24.27 20.44 27.20 31.45 25.25 31.70 32.67 31.45 27.66 26.64 27.63 30.01 35.13 37.88 40.09 42.64 43.76 43.85 44.75 45.16 43.59 43.71 44.31 45.45 46.37 48.59 46.54 45.35 43.50 42.61 42.66 42.24 41.44 39.91 39.89 39.09 40.22 40.04 40.38 39.97 40.27 39.01
35.43 23.95 27.76 30.69 32.81 30.07 29.66 30.91 32.44 30.97 31.98 29.12 30.89 32.71 36.95 39.91 41.88 43.02 44.48 43.60 43.52 43.06 42.58 44.28 43.93 43.96 44.57 43.85 43.35 42.01 42.83 42.30 41.95 41.08 40.00 38.67 39.05 39.00 39.50 39.04 38.71 38.70 37.70 36.82
35.92 26.61 27.17 24.47 32.23 32.57 29.85 32.83 33.03 33.18 33.50 33.92 34.48 34.94 42.12 43.84 44.30 43.73 42.55 43.00 43.01 42.81 43.49 43.11 43.41 43.30 39.02 37.76 40.10 40.33 40.91 40.63 40.31 39.53 37.72 38.56 37.54 37.86 37.14 36.76 36.27 35.95 35.48 35.11
34.34 29.42 23.60 18.66 30.68 30.62 29.11 32.80 33.93 36.48 39.09 38.59 35.09 38.42 42.85 42.12 42.89 42.26 41.44 42.01 42.84 43.44 42.15 43.08 42.16 37.93 37.57 38.69 38.66 37.94 38.58 39.09 38.09 36.92 37.35 36.21 36.77 35.69 35.69 35.60 35.25 34.57 33.92 33.74
34.79 31.45 30.13 23.73 28.64 23.82 35.69 41.16 40.33 37.71 38.69 39.99 40.04 41.62 42.79 43.09 43.77 40.56 41.23 39.22 38.25 40.98 42.69 43.10 37.65 36.01 35.43 36.93 36.95 36.95 36.92 36.15 35.79 34.79 34.77 35.28 35.18 34.92 35.07 34.66 33.97 33.59 33.64 32.93
39.68 35.92 27.96 26.53 25.34 30.43 35.74 38.73 39.00 36.49 35.84 40.97 39.62 41.47 43.38 44.14 43.23 39.53 40.27 37.08 36.61 41.27 41.31 36.58 35.62 35.31 36.05 35.65 35.80 35.23 34.87 34.70 34.53 34.48 35.04 35.46 35.67 35.29 35.28 34.52 34.29 34.12 32.92 31.05
38.82 38.52 34.18 29.92 25.87 23.17 32.40 39.12 41.21 41.28 32.55 40.67 40.07 41.02 43.50 41.88 37.43 37.20 38.62 36.21 34.48 35.03 35.51 35.25 35.91 35.87 35.22 35.54 36.32 35.53 34.95 34.84 34.65 35.49 35.95 36.72 36.77 35.75 34.60 33.88 31.81 31.05 30.19 29.18
34.87 34.67 30.64 29.57 28.02 29.53 37.13 40.61 43.10 31.49 33.37 39.60 39.85 42.22 42.79 39.17 38.75 38.32 38.65 37.26 35.81 35.36 35.15 35.73 35.39 34.78 35.45 36.82 36.94 35.57 35.60 34.25 36.37 36.95 36.44 35.66 34.65 32.27 30.04 29.84 30.53 29.84 29.83 29.14
32.09 31.47 32.00 32.78 29.68 24.14 40.17 41.16 37.40 39.49 40.54 40.03 39.05 42.20 39.73 39.02 38.55 36.54 37.16 37.95 37.03 35.83 36.17 36.86 35.89 36.26 37.31 37.53 36.44 35.06 33.56 35.37 35.50 34.51 33.12 32.30 32.07 32.63 31.57 29.50 29.09 27.48 25.70 24.47
32.38 34.22 33.20 32.04 31.47 38.34 41.67 41.29 40.82 40.95 39.61 38.49 37.58 40.01 39.15 37.59 36.99 36.21 34.34 36.72 37.68 38.05 37.88 38.11 37.56 36.94 36.27 37.07 37.07 33.92 33.35 33.08 32.22 31.53 30.83 30.79 30.90 30.64 29.20 26.58 25.59 25.04 24.74 23.20
39.23 40.94 37.82 36.11 40.04 39.23 41.36 40.91 40.26 39.24 38.25 39.34 38.95 41.49 41.13 36.50 35.97 34.98 34.52 33.71 34.23 35.32 35.51 37.02 35.19 33.27 32.25 32.84 32.58 31.58 31.16 31.54 31.56 30.58 30.29 29.39 28.11 26.66 26.33 26.21 25.42 23.66 22.45 21.81
38.50 39.20 37.07 36.71 40.08 40.38 39.48 39.82 39.27 39.02 38.51 38.94 39.79 41.39 38.89 36.26 34.67 34.28 33.21 32.84 33.26 32.57 32.49 32.06 30.44 29.42 29.22 30.49 30.68 31.59 31.98 32.03 30.21 29.64 28.24 26.37 26.47 25.07 24.04 24.08 23.67 23.36 23.33 23.19
38.16 36.79 35.19 35.18 41.04 40.16 39.60 39.53 40.58 38.26 37.41 38.07 38.40 37.76 37.53 36.26 34.20 33.54 32.07 31.15 30.84 30.61 30.43 29.53 29.39 29.39 29.77 30.55 30.78 31.40 32.05 31.43 29.83 26.06 25.23 24.89 23.56 22.75 22.26 22.22 22.61 30.34 29.60 30.05
MSLP
1011.90 1012.50 1012.65 1012.80 1012.93 1012.83 1013.13 1013.32 1013.28 1012.34 1011.84 1011.53 1011.49 1011.11 1010.48 1009.63 1009.24 1008.76 1008.33 1008.15 1007.63 1007.10 1006.62 1006.52 1006.50 1006.30 1006.38 1006.38 1006.46 1006.64 1007.00 1006.98 1007.41 1008.18 1009.03 1009.66 1010.28 1010.57 1011.06 1011.33 1011.66 1012.36 1013.05 1013.77
1012.35 1012.20 1012.27 1012.54 1012.67 1012.92 1013.50 1013.71 1013.37 1012.50 1012.11 1012.33 1011.99 1010.63 1010.07 1009.25 1007.99 1007.73 1007.28 1007.48 1006.98 1006.58 1006.44 1006.18 1006.14 1006.22 1006.23 1006.12 1006.15 1006.40 1006.49 1006.57 1006.56 1007.22 1007.89 1008.74 1009.78 1010.40 1010.66 1011.16 1011.51 1011.90 1012.87 1013.50
1012.12 1012.08 1011.98 1012.53 1012.78 1013.15 1013.42 1013.69 1013.72 1013.83 1013.21 1013.08 1012.80 1010.85 1009.32 1007.73 1006.82 1006.41 1006.27 1006.06 1006.17 1006.10 1006.07 1005.86 1005.96 1005.92 1006.00 1006.05 1005.84 1005.95 1006.18 1006.40 1006.48 1006.56 1007.60 1008.86 1009.75 1010.80 1011.28 1011.68 1011.63 1012.24 1012.63 1013.35
1012.16 1012.00 1012.02 1012.41 1012.83 1013.23 1013.71 1013.93 1014.28 1014.62 1014.90 1015.20 1014.55 1013.26 1010.11 1007.91 1006.76 1006.21 1005.64 1005.61 1005.48 1005.41 1005.21 1005.17 1005.40 1005.47 1005.51 1005.68 1005.48 1005.34 1005.47 1005.82 1006.07 1006.21 1006.85 1007.54 1008.55 1010.05 1010.81 1011.19 1011.55 1012.14 1012.70 1013.47
1012.39 1012.10 1012.38 1012.78 1013.01 1013.36 1014.10 1014.35 1014.87 1015.46 1016.01 1016.16 1015.32 1015.12 1010.11 1008.19 1007.12 1006.13 1005.71 1005.34 1004.99 1004.64 1004.62 1004.66 1004.74 1004.72 1004.66 1004.72 1004.85 1005.07 1005.05 1005.02 1005.28 1005.77 1006.05 1006.81 1008.04 1009.21 1010.41 1011.52 1011.99 1012.35 1013.05 1013.47
1012.48 1012.32 1012.70 1012.99 1013.22 1013.56 1014.32 1014.97 1015.64 1016.32 1017.02 1016.94 1014.90 1014.41 1010.48 1008.26 1006.66 1006.01 1005.28 1004.89 1004.51 1004.65 1004.49 1004.66 1004.68 1004.82 1004.83 1004.70 1004.87 1004.91 1004.86 1004.86 1005.02 1004.88 1005.74 1006.24 1007.51 1008.91 1010.42 1011.86 1012.36 1012.79 1013.22 1013.67
1012.83 1013.05 1013.12 1013.24 1013.65 1014.06 1014.74 1015.94 1017.29 1017.81 1018.06 1016.61 1014.75 1014.19 1009.71 1007.48 1005.95 1005.51 1005.11 1004.62 1004.61 1004.59 1004.48 1004.62 1004.64 1004.79 1004.84 1005.01 1005.13 1005.00 1004.81 1004.50 1004.50 1004.93 1005.14 1005.97 1006.96 1008.04 1009.21 1010.88 1011.99 1012.74 1013.19 1013.64
1013.47 1013.75 1013.29 1013.34 1013.72 1014.21 1015.21 1016.06 1017.41 1017.79 1018.15 1016.68 1014.74 1012.24 1008.47 1006.44 1005.31 1004.98 1004.46 1004.25 1004.11 1004.39 1004.40 1004.45 1004.59 1004.70 1004.74 1004.79 1004.92 1004.95 1004.69 1004.19 1003.98 1004.51 1004.84 1005.60 1006.70 1007.91 1009.16 1010.28 1011.48 1012.34 1012.64 1013.05
1013.46 1013.40 1012.88 1013.27 1013.57 1014.20 1015.26 1016.01 1016.80 1017.66 1017.75 1017.41 1014.25 1010.84 1007.87 1006.03 1005.61 1005.23 1005.31 1005.00 1004.94 1004.82 1004.84 1004.60 1004.65 1004.70 1004.74 1004.81 1004.67 1004.59 1004.13 1003.95 1003.56 1004.06 1004.82 1005.40 1006.35 1007.63 1008.92 1010.18 1011.22 1012.18 1012.79 1012.99
1012.61 1013.12 1013.42 1013.49 1013.71 1014.23 1014.82 1015.70 1016.91 1017.97 1018.39 1017.02 1013.86 1011.24 1008.38 1006.67 1006.05 1005.55 1005.62 1005.51 1005.30 1005.15 1005.00 1004.64 1004.50 1004.44 1004.52 1004.59 1004.44 1003.69 1003.38 1003.44 1003.41 1004.06 1004.44 1005.38 1006.44 1007.50 1008.82 1009.93 1011.01 1011.80 1012.65 1013.16
1012.33 1012.98 1014.53 1014.20 1014.11 1014.38 1015.00 1015.44 1016.26 1017.20 1017.54 1016.95 1014.65 1010.49 1007.31 1006.48 1006.06 1005.92 1005.74 1005.45 1005.74 1005.61 1004.73 1004.30 1004.19 1004.40 1004.53 1004.52 1004.00 1003.43 1003.03 1003.39 1003.65 1004.31 1004.80 1005.59 1007.00 1007.87 1008.84 1009.83 1010.63 1011.57 1012.52 1013.14
1012.56 1013.60 1014.80 1014.78 1014.41 1014.43 1014.85 1015.32 1016.09 1016.96 1016.92 1016.40 1014.78 1010.08 1007.28 1006.52 1005.90 1005.52 1005.31 1005.05 1004.90 1004.61 1004.48 1004.24 1004.24 1004.34 1004.44 1004.38 1003.48 1003.55 1002.87 1003.35 1003.88 1004.61 1005.29 1006.11 1007.04 1008.11 1008.95 1009.80 1010.69 1011.63 1012.48 1013.22
1012.55 1013.90 1015.41 1015.46 1015.17 1014.72 1014.85 1015.00 1015.38 1015.91 1016.22 1015.37 1014.59 1009.83 1007.04 1006.35 1006.22 1005.98 1005.39 1005.20 1004.98 1004.52 1003.84 1003.89 1004.20 1004.35 1004.35 1003.90 1003.78 1003.61 1003.32 1003.77 1004.48 1004.97 1005.61 1006.78 1007.41 1008.26 1009.30 1010.15 1011.00 1011.89 1012.69 1013.57
1012.62 1014.11 1015.02 1015.20 1014.77 1014.54 1014.69 1014.52 1014.77 1015.30 1015.43 1013.75 1011.54 1009.53 1007.46 1006.86 1006.03 1005.62 1005.26 1005.22 1004.59 1003.94 1003.62 1003.67 1004.11 1004.07 1004.08 1004.07 1004.28 1004.51 1004.14 1004.41 1005.09 1005.83 1006.24 1007.21 1007.85 1008.82 1009.65 1010.66 1011.64 1012.53 1013.31 1014.16
1013.31 1014.68 1015.15 1015.01 1014.72 1014.57 1014.17 1013.97 1014.01 1014.03 1013.19 1013.29 1009.83 1009.54 1007.64 1006.78 1006.16 1005.63 1005.07 1004.93 1004.33 1003.85 1003.43 1003.43 1003.92 1004.32 1004.56 1004.66 1005.00 1005.31 1005.46 1005.52 1006.00 1006.37 1007.19 1008.02 1008.96 1009.70 1010.54 1011.55 1012.50 1013.15 1013.95 1014.94
1013.86 1015.00 1015.25 1015.07 1014.03 1013.65 1013.28 1012.48 1012.29 1012.20 1011.77 1011.41 1010.36 1008.66 1007.31 1006.43 1006.02 1005.70 1005.50 1005.31 1005.22 1004.94 1004.87 1004.58 1004.56 1004.90 1005.24 1005.51 1006.00 1006.12 1006.76 1006.71 1006.88 1007.50 1008.11 1009.17 1009.92 1010.66 1011.66 1012.80 1013.65 1014.28 1015.14 1015.95
1014.15 1014.92 1015.44 1014.94 1013.53 1012.70 1011.59 1010.10 1010.19 1009.88 1009.72 1009.68 1008.90 1007.45 1006.67 1006.10 1006.03 1006.25 1006.39 1006.14 1005.61 1005.36 1005.37 1005.33 1005.39 1005.71 1005.68 1006.14 1006.69 1007.14 1007.53 1007.71 1008.08 1008.67 1009.37 1010.15 1010.90 1011.81 1012.77 1013.60 1014.53 1015.66 1016.39 1016.91
1013.90 1014.68 1014.76 1014.34 1013.05 1011.79 1009.34 1008.38 1008.18 1008.59 1008.34 1008.16 1007.65 1007.16 1006.78 1006.44 1006.61 1007.23 1007.34 1006.98 1006.06 1005.22 1005.28 1005.61 1006.16 1006.53 1006.88 1006.80 1007.67 1008.02 1008.36 1008.81 1009.39 1010.12 1010.82 1011.51 1012.18 1013.15 1014.22 1014.84 1015.02 1015.87 1016.81 1017.82
1013.33 1014.04 1014.14 1013.87 1013.06 1010.89 1008.56 1007.74 1007.78 1008.00 1007.53 1007.07 1007.14 1006.88 1006.73 1006.55 1006.84 1007.64 1008.00 1007.58 1006.72 1005.40 1005.58 1006.24 1006.84 1007.33 1007.75 1007.92 1008.61 1009.07 1009.81 1010.24 1010.88 1011.77 1012.22 1012.82 1013.50 1014.55 1015.43 1015.72 1016.23 1017.03 1017.03 1018.04
1013.17 1013.55 1014.00 1013.57 1012.67 1010.55 1008.27 1007.32 1007.19 1007.61 1007.27 1006.54 1006.73 1006.86 1007.01 1007.09 1007.69 1008.61 1008.79 1008.42 1007.91 1007.55 1007.40 1007.37 1008.02 1008.56 1008.84 1009.55 1009.90 1010.11 1010.84 1011.56 1012.55 1013.30 1013.68 1014.00 1014.64 1015.55 1016.07 1016.47 1016.01 1017.41 1017.66 1018.50
1012.66 1013.06 1013.20 1012.93 1012.12 1010.00 1007.85 1007.01 1007.31 1007.54 1007.03 1006.40 1006.59 1006.85 1007.36 1008.02 1008.86 1009.08 1009.37 1009.29 1008.95 1008.79 1008.73 1008.94 1009.16 1009.45 1010.07 1010.50 1010.86 1011.52 1012.16 1012.82 1013.48 1013.56 1014.24 1014.96 1015.41 1015.67 1016.42 1016.85 1017.02 1017.56 1018.49 1018.73
1011.51 1011.83 1011.87 1011.83 1011.12 1009.19 1006.90 1007.09 1007.38 1006.64 1006.27 1006.46 1006.57 1006.94 1007.83 1008.60 1009.23 1009.58 1009.70 1010.00 1010.07 1009.99 1010.09 1010.19 1010.35 1010.70 1011.18 1011.51 1011.74 1012.52 1013.26 1014.05 1014.40 1014.68 1015.24 1016.01 1016.06 1016.34 1016.76 1017.46 1017.97 1018.13 1018.79 1019.23
1010.38 1009.76 1009.89 1009.96 1008.80 1007.19 1006.64 1006.50 1006.54 1006.62 1006.76 1006.78 1006.93 1007.25 1007.97 1008.90 1009.65 1010.04 1010.20 1010.45 1010.64 1010.78 1010.90 1011.14 1011.40 1011.78 1012.28 1012.59 1012.85 1013.30 1014.35 1014.72 1015.35 1015.46 1016.10 1016.31 1016.59 1017.13 1017.69 1017.91 1018.49 1018.81 1019.15 1019.68
1009.13 1008.55 1008.63 1008.62 1007.08 1006.95 1006.59 1006.70 1006.79 1006.86 1006.90 1006.91 1007.02 1007.29 1008.05 1008.98 1009.72 1010.43 1010.64 1010.81 1011.13 1011.30 1011.48 1011.79 1012.19 1012.71 1013.25 1013.48 1013.84 1014.29 1015.05 1015.34 1015.37 1015.95 1016.62 1016.87 1016.96 1017.64 1018.25 1018.67 1018.98 1019.18 1019.34 1019.58
1009.18 1008.65 1008.19 1007.78 1006.94 1006.50 1006.62 1006.74 1006.87 1007.06 1007.13 1007.17 1007.20 1007.47 1008.20 1009.03 1009.87 1010.48 1010.99 1011.15 1011.32 1011.71 1012.06 1012.41 1012.76 1013.29 1013.80 1014.10 1014.45 1014.76 1015.13 1015.43 1015.95 1016.56 1016.95 1017.28 1017.91 1018.51 1018.94 1019.09 1019.12 1019.51 1019.77 1019.93
1008.47 1008.11 1008.09 1007.34 1006.75 1006.68 1006.74 1006.82 1007.08 1007.34 1007.48 1007.64 1007.79 1008.21 1008.80 1009.23 1010.06 1010.64 1011.21 1011.59 1011.75 1012.20 1012.63 1013.11 1013.54 1013.88 1014.35 1014.60 1015.00 1015.42 1015.72 1015.97 1016.50 1017.19 1017.63 1018.13 1018.67 1019.15 1019.43 1019.67 1019.98 1019.91 1019.96 1019.95
Wind_Speed
4 4 6 9 6 4 5 6 5 4 5 2 6 9 10 11 10 17 17 12 13 15 11 9 9 9 9 9 8 10 10 15 12 10 10 8 6 8 7 9 12 10 11 12
4 2 5 8 9 10 4 7 6 6 5 4 11 21 17 18 19 19 19 12 13 14 11 9 9 8 8 9 8 7 8 13 15 12 11 6 5 2 5 6 7 12 12 11
6 2 7 5 2 7 2 4 3 5 7 6 8 11 8 8 14 19 19 19 15 17 16 11 9 9 8 9 9 8 8 9 10 12 8 4 6 3 3 2 7 6 10 9
1 1 3 4 3 3 0 4 5 4 4 4 6 10 8 9 10 6 10 10 16 16 10 9 9 8 8 9 8 9 9 9 9 9 9 14 11 9 4 4 5 8 10 9
6 3 5 3 2 5 3 6 5 4 3 5 3 2 10 6 6 6 7 9 10 12 14 14 10 9 10 8 8 9 9 9 10 12 11 11 9 6 5 5 10 9 7 10
4 3 4 6 2 4 5 4 3 3 2 3 9 7 6 3 4 3 3 6 7 4 6 5 4 1 3 4 4 6 8 9 8 14 12 15 15 13 11 8 8 7 6 7
2 2 3 3 4 2 4 6 3 2 2 8 2 4 8 9 11 7 9 7 4 7 6 3 5 6 6 6 8 7 8 9 8 10 14 14 15 16 18 15 9 11 8 8
5 3 9 5 6 6 6 6 6 6 4 5 1 9 8 10 13 8 8 7 7 8 6 6 5 3 5 7 7 9 9 9 8 9 14 13 15 10 9 11 9 7 8 10
5 3 5 9 4 6 3 3 5 1 2 3 6 8 9 8 9 8 5 4 10 3 3 5 5 4 5 7 8 9 10 9 8 12 12 13 14 14 12 12 11 8 8 8
1 5 5 4 4 4 6 5 3 3 2 5 6 6 10 4 5 8 9 9 4 4 3 2 2 3 4 6 8 9 9 10 9 12 12 12 13 13 13 12 11 11 10 13
1 3 2 2 5 7 4 5 4 2 4 3 5 7 5 6 2 4 7 4 3 8 7 6 3 2 5 7 7 9 6 7 8 9 12 14 12 13 13 12 12 12 13 13
3 4 3 8 6 8 5 6 6 5 5 4 3 9 12 17 14 9 16 18 20 14 9 7 5 1 5 8 8 9 5 6 9 12 12 13 13 13 13 12 13 13 13 13
6 1 2 1 4 1 5 6 8 4 2 8 4 9 5 15 22 24 22 18 19 14 10 7 6 3 4 6 6 5 7 11 10 13 15 14 14 14 13 13 13 13 14 12
6 4 6 6 3 3 3 3 6 10 4 8 16 24 26 24 23 23 19 18 19 15 12 8 5 3 3 4 6 4 9 10 12 12 15 14 14 13 13 14 13 13 13 12
4 2 1 5 6 4 7 9 9 11 16 11 24 22 26 26 19 22 15 8 8 8 3 7 6 4 5 7 6 7 8 10 11 14 13 13 12 12 13 13 13 13 14 12
2 2 3 6 9 10 10 13 13 15 18 20 23 26 20 16 16 13 5 7 12 7 9 2 4 7 8 8 8 9 8 9 12 12 14 13 12 13 13 13 13 14 13 12
5 3 2 5 5 6 5 8 13 6 5 6 10 15 15 18 13 8 11 13 11 12 4 4 3 5 9 11 10 9 10 10 12 13 13 13 14 15 14 14 14 12 9 8
6 3 1 4 4 1 4 5 7 10 7 10 11 15 13 13 7 8 10 12 13 13 6 3 7 7 7 13 11 11 12 12 13 12 13 14 15 15 13 11 13 11 9 7
4 4 1 1 2 7 3 2 3 6 7 6 7 7 10 8 2 4 12 11 14 9 6 9 9 10 11 12 12 14 13 14 14 13 14 13 14 13 11 11 10 7 9 6
5 3 1 2 3 3 2 3 2 4 5 4 4 6 6 6 5 3 9 10 12 13 11 13 12 12 12 11 11 14 14 14 14 11 11 11 12 10 8 7 11 5 5 5
4 3 6 6 4 7 9 6 5 3 6 2 2 3 3 2 2 2 6 9 10 10 11 11 11 12 12 11 12 13 12 11 9 11 11 9 10 8 6 5 7 7 5 5
6 6 4 5 4 7 4 4 3 5 3 3 2 2 5 7 5 4 6 7 8 9 10 10 10 10 9 10 12 12 12 9 10 11 10 8 9 6 6 7 5 7 6 5
3 7 6 8 8 6 3 3 1 1 3 2 2 1 7 7 5 5 6 7 8 8 8 8 9 10 10 9 9 12 7 9 10 10 9 8 9 8 6 7 6 5 5 4
5 4 4 2 4 7 5 3 1 1 2 3 2 4 7 8 8 6 6 8 7 6 8 8 9 10 9 8 9 10 10 10 10 10 8 7 9 7 6 4 4 4 4 4
4 5 2 5 8 3 2 1 1 1 2 3 3 4 7 10 8 7 6 6 7 9 8 8 9 9 10 10 9 9 9 9 10 9 7 7 6 6 5 4 4 4 2 3
5 7 3 5 5 3 4 1 1 2 1 2 5 6 5 7 8 8 7 6 9 9 9 9 9 10 9 10 9 8 7 9 10 8 6 5 5 4 4 4 3 4 4 5
Wind_Direction
177 157 180 196 193 243 272 299 274 269 327 324 265 275 265 269 263 266 263 245 249 249 253 231 239 232 227 236 225 208 186 195 183 178 181 195 175 180 177 180 172 150 154 152
120 182 189 194 204 232 266 275 278 297 351 26 307 290 275 256 255 240 252 245 248 252 249 260 254 255 236 228 221 229 201 198 185 186 188 182 163 164 168 169 146 152 152 151
143 139 206 219 276 200 236 267 291 267 339 349 342 291 256 281 243 247 247 247 246 241 241 238 240 238 251 249 231 215 208 203 217 180 131 86 83 64 75 152 140 147 141 146
110 172 111 131 222 144 34 33 68 48 48 258 75 290 287 269 277 251 243 240 237 237 233 223 228 235 230 238 250 230 203 192 209 197 161 159 173 166 190 156 142 136 137 138
229 160 137 137 208 161 179 93 72 40 13 354 283 217 276 254 272 275 294 265 241 226 221 232 240 245 245 231 210 231 252 202 189 206 181 171 160 134 129 130 133 132 139 140
125 81 102 185 130 80 127 69 44 43 60 312 223 179 272 231 204 206 252 324 257 204 170 178 181 92 316 304 255 233 227 236 219 194 184 175 151 143 140 149 147 152 147 145
83 132 133 77 126 111 94 78 7 350 216 237 134 187 249 280 273 241 261 272 163 179 156 102 54 22 9 355 320 289 240 230 215 197 172 158 158 156 159 161 163 157 151 161
139 318 160 186 171 173 163 161 160 217 215 275 268 237 255 236 254 269 224 224 218 193 161 142 112 72 6 339 320 293 254 229 197 177 161 155 147 147 150 156 158 166 166 157
123 262 151 163 154 124 194 185 187 56 302 43 247 301 309 314 354 30 13 309 271 264 161 117 62 29 353 320 296 279 261 234 187 161 159 148 143 143 154 147 154 158 161 145
360 110 144 149 161 229 155 172 99 4 279 280 282 258 245 337 355 9 7 335 4 153 172 137 90 7 323 298 283 285 242 212 170 160 145 140 137 137 140 142 145 150 151 152
165 86 91 142 196 186 178 204 203 140 173 220 288 263 235 210 104 337 335 6 300 274 218 201 195 256 294 294 300 294 238 181 140 134 129 129 133 134 135 142 142 148 150 147
145 114 182 214 232 199 179 194 160 133 260 248 217 267 263 272 296 327 318 318 290 252 238 212 170 192 303 296 321 291 218 138 124 125 125 125 128 131 131 140 146 150 143 140
148 93 49 29 8 177 196 209 199 219 41 227 261 266 257 323 314 304 302 307 294 285 252 181 182 184 290 317 331 305 104 111 121 123 120 122 125 128 129 133 136 138 137 132
119 150 170 183 186 101 204 221 195 189 222 266 242 277 288 289 297 302 298 304 293 276 252 178 168 166 282 18 67 69 104 111 124 122 119 120 120 125 131 131 131 131 126 120
95 167 288 264 252 195 220 240 240 235 248 249 278 279 288 296 307 306 300 315 319 355 294 156 154 190 66 79 71 74 80 108 115 112 112 107 116 118 121 119 117 112 101 94
107 259 62 289 251 236 245 244 238 242 253 255 263 275 277 286 303 330 298 310 320 340 2 66 158 94 97 81 81 90 91 97 105 106 109 115 115 108 102 98 99 95 93 88
153 142 87 272 312 337 275 233 214 208 206 227 261 271 300 315 322 350 338 332 304 293 289 325 85 101 106 99 98 95 99 96 95 106 108 108 106 101 102 100 94 96 102 112
154 159 213 264 334 265 248 229 201 211 233 220 264 279 305 303 334 36 3 338 314 273 263 204 113 98 95 96 93 95 94 91 97 92 94 96 96 93 88 93 108 110 100 96
132 162 284 302 264 274 259 106 199 190 274 225 256 287 293 308 318 55 7 356 358 33 60 87 96 97 98 95 101 97 90 88 87 92 88 90 99 104 116 117 102 111 116 154
152 155 124 343 288 258 257 267 134 116 271 221 235 272 300 343 17 346 4 9 40 50 65 88 88 87 88 89 96 96 96 92 87 94 100 106 102 103 111 133 130 145 104 122
158 158 218 232 263 283 252 258 129 353 263 256 238 258 338 52 113 34 56 45 54 64 77 80 82 93 97 95 97 91 93 91 105 100 100 107 103 128 135 107 103 109 120 109
172 162 189 188 223 270 216 115 222 240 298 309 322 119 106 112 117 93 84 80 72 77 80 82 93 93 89 104 107 101 100 103 102 102 105 113 108 114 103 113 107 97 108 105
205 193 183 187 212 235 273 226 14 276 258 312 302 124 133 128 119 124 102 98 96 95 98 90 91 83 68 75 104 107 96 105 113 119 125 118 113 105 104 94 93 85 82 102
240 191 240 145 263 246 239 152 135 349 306 300 266 148 147 137 136 120 115 116 115 104 100 105 101 100 103 98 97 108 137 150 127 117 121 111 99 88 80 79 92 102 84 70
236 347 281 270 289 344 90 105 264 141 12 11 19 149 137 140 138 139 137 126 117 115 112 112 110 108 110 113 112 116 123 123 113 109 99 83 87 94 88 68 83 87 96 143
198 205 196 239 245 211 255 215 218 148 127 119 116 98 95 121 129 130 118 113 119 119 117 108 108 108 112 112 109 110 114 116 118 107 93 93 90 88 87 97 67 69 118 90